"Pseudo-MPEC" for P11DxbX

Created 2023 Mar 26 6:22:10 UT using Find_Orb

Click here for an explanation of pseudo-MPECs

 
 Astrometry: 
     P11DxbX* C2023 03 17BD$.]JOGY4uL(B]W$:(mtVgHWgQjYZ^!X/;f^rAstrometrykL!3F51
     P11DxbX  C2023 03 17c2l#n_w$[m+?redacted;d'w[kl!Oc!T'WBjC4n7MEoSyPF*VLIuF51
     P11DxbX  C2023 03 17-F0xme(Vgclick*0n;,9here^@aOm`forxF`(Fj_Ln44nx2acn=*F51
     P11DxbX  C2023 03 17R(Sm4l+/-4m2#S;#xT*lB`texplanation*H]y?h+!ASjg^ytMUgF51

Station data:
(F51) Pan-STARRS 1, Haleakala  (N20.707234 W156.255910)  US/Hawaii.
   Observers J. Bulger, T. Lowe, A. Schultz, M. Willman. Measurers K.
   Chambers, S. Chastel, T. de Boer, L. Denneau, J. Fairlamb, H. Flewelling,
   M. Huber, C.-C. Lin, E. Magnier, Y. Ramanjooloo, R. Wainscoat, R. Weryk.
   1.8-m Ritchey-Chrétien + CCD.

Orbital elements:  P11DxbX
   Perihelion 2022 Dec 14.81911 +/- 149 TT = 19:39:31 (JD 2459928.31911)
Epoch 2023 Mar 18.0 TT = JDT 2460021.5   Earth MOID: 0.2287      AutoNEOCP
M  45.05839048 +/- 70               (J2000 ecliptic)
n   0.48355829 +/- 0.366            Peri.    8.19009 +/- 90
a   1.60757098 +/- 0.81             Node   114.71592 +/- 52
e   0.2470807 +/- 0.272             Incl.   27.77979 +/- 13
P   2.04/744.47d           H 20.29  G  0.15   U 12.1  SR
q 1.21037113 +/- 0.844    Q 2.00477083 +/- 35.6
From 4 observations 2023 Mar. 17 (52.2 min); mean residual 0".05
Residuals in arcseconds: 
230317 F51  .07-  .03-    230317 F51  .03+  .08+    
230317 F51  .08+  .00     230317 F51  .05-  .05-    

Ephemerides (geocentric):
Date (UTC) HH   RA             Dec           delta  r     elong  mag " sig PA
---- --------  ------------   ------------  ------ ------ -----  --- --------
2023 03 26 06  16 31 39.745   +41 25 20.31  .74260 1.4180 108.3 22.1  26d  31
2023 03 26 07  16 31 39.959   +41 25 56.84  .74265 1.4181 108.3 22.1  26d  31
2023 03 26 08  16 31 40.166   +41 26 33.33  .74269 1.4182 108.3 22.1  26d  31
2023 03 26 09  16 31 40.365   +41 27 09.79  .74274 1.4184 108.3 22.1  26d  31
2023 03 26 10  16 31 40.557   +41 27 46.21  .74278 1.4185 108.3 22.1  26d  31
2023 03 26 11  16 31 40.742   +41 28 22.59  .74283 1.4187 108.3 22.1  26d  31
2023 03 26 12  16 31 40.920   +41 28 58.94  .74287 1.4188 108.3 22.1  26d  31
2023 03 26 13  16 31 41.089   +41 29 35.26  .74292 1.4189 108.3 22.1  26d  31
2023 03 26 14  16 31 41.252   +41 30 11.53  .74296 1.4191 108.4 22.1  26d  31
2023 03 26 15  16 31 41.407   +41 30 47.78  .74301 1.4192 108.4 22.1  26d  31
2023 03 26 16  16 31 41.555   +41 31 23.98  .74305 1.4193 108.4 22.1  26d  31
2023 03 26 17  16 31 41.695   +41 32 00.15  .74310 1.4195 108.4 22.1  26d  31
2023 03 26 18  16 31 41.828   +41 32 36.29  .74314 1.4196 108.4 22.1  26d  31
2023 03 26 19  16 31 41.954   +41 33 12.38  .74319 1.4198 108.4 22.1  26d  31
2023 03 26 20  16 31 42.072   +41 33 48.45  .74323 1.4199 108.4 22.1  26d  31
2023 03 26 21  16 31 42.183   +41 34 24.47  .74327 1.4200 108.4 22.1  26d  31
2023 03 26 22  16 31 42.286   +41 35 00.46  .74332 1.4202 108.4 22.1  26d  31
2023 03 26 23  16 31 42.382   +41 35 36.42  .74336 1.4203 108.5 22.1  26d  31
2023 03 27 00  16 31 42.471   +41 36 12.33  .74341 1.4205 108.5 22.1  26d  31
2023 03 27 01  16 31 42.552   +41 36 48.22  .74345 1.4206 108.5 22.1  26d  31
2023 03 27 02  16 31 42.626   +41 37 24.06  .74350 1.4207 108.5 22.1  26d  31
2023 03 27 03  16 31 42.693   +41 37 59.87  .74354 1.4209 108.5 22.1  26d  31
2023 03 27 04  16 31 42.752   +41 38 35.64  .74359 1.4210 108.5 22.1  26d  31
2023 03 27 05  16 31 42.804   +41 39 11.38  .74363 1.4212 108.5 22.1  26d  31
2023 03 27 06  16 31 42.848   +41 39 47.07  .74368 1.4213 108.5 22.1  26d  31
2023 03 27 07  16 31 42.885   +41 40 22.74  .74372 1.4214 108.5 22.1  26d  31
2023 03 27 08  16 31 42.914   +41 40 58.36  .74377 1.4216 108.6 22.1  26d  31
2023 03 27 09  16 31 42.936   +41 41 33.95  .74381 1.4217 108.6 22.1  26d  31
2023 03 27 10  16 31 42.951   +41 42 09.50  .74386 1.4219 108.6 22.1  26d  31
2023 03 27 11  16 31 42.959   +41 42 45.02  .74390 1.4220 108.6 22.1  26d  31
2023 03 27 12  16 31 42.959   +41 43 20.49  .74395 1.4221 108.6 22.1  26d  31
2023 03 27 13  16 31 42.951   +41 43 55.93  .74399 1.4223 108.6 22.1  26d  31
2023 03 27 14  16 31 42.936   +41 44 31.34  .74404 1.4224 108.6 22.1  26d  31
2023 03 27 15  16 31 42.914   +41 45 06.70  .74408 1.4226 108.6 22.1  26d  31
2023 03 27 16  16 31 42.885   +41 45 42.03  .74413 1.4227 108.6 22.1  26d  31
2023 03 27 17  16 31 42.848   +41 46 17.32  .74417 1.4228 108.7 22.1  26d  31
2023 03 27 18  16 31 42.803   +41 46 52.58  .74421 1.4230 108.7 22.1  26d  31
2023 03 27 19  16 31 42.752   +41 47 27.80  .74426 1.4231 108.7 22.1  26d  31
2023 03 27 20  16 31 42.693   +41 48 02.97  .74430 1.4233 108.7 22.1  26d  31
2023 03 27 21  16 31 42.626   +41 48 38.12  .74435 1.4234 108.7 22.1  26d  31
2023 03 27 22  16 31 42.552   +41 49 13.22  .74439 1.4235 108.7 22.1  26d  31
2023 03 27 23  16 31 42.471   +41 49 48.29  .74444 1.4237 108.7 22.1  26d  31
2023 03 28 00  16 31 42.383   +41 50 23.32  .74448 1.4238 108.7 22.1  26d  31
2023 03 28 01  16 31 42.287   +41 50 58.31  .74453 1.4240 108.7 22.1  26d  31
2023 03 28 02  16 31 42.183   +41 51 33.26  .74457 1.4241 108.8 22.1  26d  31
2023 03 28 03  16 31 42.072   +41 52 08.18  .74462 1.4242 108.8 22.1  26d  31
2023 03 28 04  16 31 41.954   +41 52 43.06  .74466 1.4244 108.8 22.1  26d  31
2023 03 28 05  16 31 41.829   +41 53 17.90  .74471 1.4245 108.8 22.1  26d  31